Flag for U.S.A. Weather past 2 weeks in Anchorage, Alaska, U.S.A.

Now
59 °F

Sunny.


Feels Like: 58 °F
Forecast: 47 / 62 °F
Wind: 7 mph from West

Location: Lake Hood Seaplane

Current Time: Sep 1, 2015 at 8:47:51 PM

Latest Report: Sep 1, 2015 at 7:53 PM


Visibility: 10 mi

Pressure: 30.00 "Hg

Humidity: 41%

Dew point: 35 °F

Location of AnchorageLocation

Historic Weather in Anchorage — Graph

°F

Anchorage temperature yesterday

Maximum temperature yesterday: 60 °F (at 5:53 PM)
Minimum temperature yesterday: 43 °F (at 6:53 AM)
Average temperature yesterday: 51 °F

Past Weeks' High & Low Weather Summary

 TemperatureHumidityPressure
High71 °F (Aug 18, 5:53 PM)93% (Aug 18, 1:53 AM)30.20 "Hg (Aug 18, 1:53 AM)
Low42 °F (Aug 29, 5:53 AM)27% (Aug 28, 2:53 PM)29.27 "Hg (Aug 29, 11:53 PM)
Average56 °F57%29.81 "Hg
* Reported Aug 17 6:02 PM — Sep 1 6:53 PM, Anchorage, Weather by CustomWeather, © 2015

Note: Actual official high and low records may vary slightly from our data, if they occured in-between our weather recording intervals... More about our weather records

Advertising

Anchorage weather history for previous 24 hours

 ConditionsComfort  
Time TempWeatherWind HumidityBarometerVisibility
6:53 PM
Tue, Sep 1
61 °FSunny.6 mph36%29.99 "Hg10 mi
5:53 PM62 °FSunny.5 mph38%29.99 "Hg10 mi
4:53 PM62 °FSunny.5 mph34%29.99 "Hg10 mi
3:53 PM61 °FSunny.6 mph36%30.00 "Hg10 mi
2:53 PM61 °FSunny.No wind30%30.00 "Hg10 mi
12:53 PM58 °FSunny.10 mph35%30.00 "Hg10 mi
11:53 AM57 °FSunny.12 mph36%30.00 "Hg10 mi
10:53 AM53 °FSunny.6 mph45%30.00 "Hg10 mi
9:53 AM51 °FSunny.5 mph48%29.99 "Hg10 mi
8:53 AM48 °FSunny.3 mph52%29.99 "Hg10 mi
7:53 AM47 °FSunny.6 mph52%29.98 "Hg10 mi
6:53 AM45 °FClear.6 mph51%29.98 "Hg10 mi
5:53 AM46 °FClear.12 mph51%29.97 "Hg10 mi
4:53 AM46 °FClear.7 mph51%29.96 "Hg10 mi
3:53 AM45 °FClear.7 mph53%29.95 "Hg10 mi
2:53 AM47 °FClear.13 mph50%29.93 "Hg10 mi
1:53 AM47 °FClear.12 mph50%29.91 "Hg10 mi
12:53 AM48 °FClear.12 mph48%29.89 "Hg10 mi
11:53 PM
Mon, Aug 31
48 °FClear.7 mph46%29.87 "Hg10 mi
10:53 PM51 °FClear.17 mph42%29.84 "Hg10 mi
9:53 PM52 °FSunny.16 mph40%29.82 "Hg10 mi
8:53 PM54 °FSunny.16 mph34%29.79 "Hg10 mi
Weather by CustomWeather, © 2015

See weather overviewHow to use our weather pages